Laconia, NH

7:07 PM EST on November 21, 2019 (GMT -0500)
Laconia Municipal

Weather History for KLCI - September, 2019

Change the Weather History Date:

Saturday, September 14, 2019

  Actual Average Record
Temperature  
Mean Temperature 54 °F -  
Max Temperature 64 °F 73 °F 84 °F (2005)
Min Temperature 44 °F 51 °F 39 °F (1985)
Degree Days  
Heating Degree Days 11    
Growing Degree Days 4 (Base 50)    
Moisture  
Dew Point 54 °F    
Average Humidity 90    
Maximum Humidity 100    
Minimum Humidity 77    
Precipitation  
Precipitation 0.08 in - - ()
Sea Level Pressure  
Sea Level Pressure 30.24 in    
Wind  
Wind Speed 5 mph ()    
Max Wind Speed 14 mph    
Max Gust Speed -    
Visibility 8.7 miles    
Events Fog , Rain    
Averages and records for this station are not official NWS values.
T = Trace of Precipitation, MM = Missing Value Source: Averaged Metar Reports

Daily Weather History Graph

Daily Weather History Graph

Search for Another Location

Airport or City:

Astronomy

Sep. 14, 2019 Rise Set
Actual Time 6:23 AM EDT 6:58 PM EDT
Civil Twilight 5:54 AM EDT 7:26 PM EDT
Nautical Twilight 5:20 AM EDT 8:00 PM EDT
Astronomical Twilight 4:45 AM EDT 8:36 PM EDT
Moon 7:38 PM EDT (9/14) 6:32 AM EDT (9/14)
Length of Visible Light 13h 32m
Length of Day
12h 34m
Full, 100% of the Moon is Illuminated
Sep 14
Full
Sep 21
Last Quarter
Sep 28
New
Oct 5
First Quarter
Oct 13
Full

Hourly Weather History & Observations

Time (EDT) Temp. Dew Point Humidity Pressure Visibility Wind Dir Wind Speed Gust Speed Precip Events Conditions
12:56 AM 46.9 °F 43.0 °F 86% 30.46 in 10.0 mi Calm Calm - N/A   Clear
1:56 AM 46.9 °F 44.1 °F 90% 30.43 in 10.0 mi Calm Calm - N/A   Clear
2:56 AM 44.1 °F 42.1 °F 93% 30.43 in 10.0 mi Calm Calm - N/A   Clear
3:56 AM 51.1 °F 44.1 °F 77% 30.40 in 10.0 mi SW 6.9 mph - N/A   Overcast
4:56 AM 51.1 °F 45.0 °F 80% 30.38 in 10.0 mi Calm Calm - N/A   Overcast
5:56 AM 52.0 °F 45.0 °F 77% 30.37 in 10.0 mi Variable 6.9 mph - N/A   Overcast
6:56 AM 52.0 °F 46.0 °F 80% 30.37 in 10.0 mi West 5.8 mph - N/A   Overcast
7:54 AM 51.8 °F 46.4 °F 82% 30.35 in 10.0 mi WSW 8.1 mph - N/A   Overcast
7:56 AM 52.0 °F 46.9 °F 83% 30.36 in 10.0 mi WSW 8.1 mph - N/A   Overcast
8:27 AM 53.6 °F 46.4 °F 77% 30.34 in 10.0 mi SSW 5.8 mph - N/A   Overcast
8:51 AM 53.6 °F 48.2 °F 82% 30.34 in 10.0 mi SW 9.2 mph - N/A   Overcast
8:56 AM 53.1 °F 48.0 °F 83% 30.35 in 10.0 mi SW 9.2 mph - 0.00 in Rain Light Rain
9:56 AM 55.0 °F 50.0 °F 83% 30.32 in 10.0 mi SW 9.2 mph - 0.00 in   Overcast
10:56 AM 55.0 °F 52.0 °F 89% 30.31 in 10.0 mi SW 10.4 mph - 0.06 in   Overcast
11:35 AM 55.4 °F 53.6 °F 94% 30.28 in 10.0 mi SSW 5.8 mph - 0.00 in Rain Light Rain
11:56 AM 57.0 °F 54.0 °F 89% 30.28 in 10.0 mi WSW 6.9 mph - 0.00 in Rain Light Rain
12:56 PM 55.9 °F 54.0 °F 93% 30.27 in 10.0 mi SW 8.1 mph - 0.01 in Rain Light Rain
1:56 PM 57.0 °F 55.9 °F 96% 30.24 in 10.0 mi SW 10.4 mph - 0.00 in Rain Light Rain
2:35 PM 57.2 °F 57.2 °F 100% 30.21 in 9.0 mi SW 6.9 mph - 0.01 in   Overcast
2:56 PM 59.0 °F 57.9 °F 96% 30.21 in 6.0 mi SSW 8.1 mph - 0.01 in   Overcast
3:50 PM 60.8 °F 59.0 °F 94% 30.18 in 10.0 mi SW 8.1 mph - N/A   Overcast
3:56 PM 61.0 °F 59.0 °F 93% 30.18 in 10.0 mi SW 8.1 mph - N/A   Overcast
4:56 PM 62.1 °F 59.0 °F 90% 30.16 in 10.0 mi SSW 9.2 mph - N/A   Overcast
5:56 PM 63.0 °F 60.1 °F 90% 30.15 in 10.0 mi SSW 10.4 mph - N/A   Overcast
6:56 PM 63.0 °F 60.1 °F 90% 30.14 in 10.0 mi SSW 9.2 mph - N/A   Overcast
7:56 PM 64.0 °F 60.1 °F 87% 30.14 in 10.0 mi SW 13.8 mph - N/A   Mostly Cloudy
8:26 PM 64.4 °F 60.8 °F 88% 30.14 in 10.0 mi SW 10.4 mph - N/A   Mostly Cloudy
8:56 PM 63.0 °F 60.1 °F 90% 30.15 in 10.0 mi WSW 8.1 mph - N/A   Overcast
9:32 PM 62.6 °F 60.8 °F 94% 30.13 in 10.0 mi SSW 11.5 mph - N/A   Partly Cloudy
9:56 PM 64.0 °F 61.0 °F 90% 30.14 in 10.0 mi SW 10.4 mph - N/A   Clear
10:56 PM 62.1 °F 60.1 °F 93% 30.13 in 10.0 mi Calm Calm - N/A   Clear
11:34 PM 59.0 °F 59.0 °F 100% 30.12 in 1.5 mi Calm Calm - N/A   Clear
11:38 PM 59.0 °F 59.0 °F 100% 30.12 in 0.5 mi Calm Calm - N/A Fog Fog
11:42 PM 59.0 °F 59.0 °F 100% 30.12 in 0.8 mi NW 4.6 mph - N/A   Mist
11:46 PM 57.2 °F 57.2 °F 100% 30.12 in 1.5 mi NNW 4.6 mph - N/A   Partly Cloudy
11:48 PM 57.2 °F 57.2 °F 100% 30.12 in 4.0 mi NNW 4.6 mph - N/A   Partly Cloudy
11:56 PM 57.9 °F 57.9 °F 100% 30.12 in 10.0 mi Calm Calm - N/A   Partly Cloudy